#timestamp,LO_Frequency,Hit,StdDev 
1581618375.7,286046996.1,P
1581618395.5,286046995.5,P
1581618415.3,286046997.3,P
1581618435.2,286046999.4,N
1581618455.0,286046998.2,N
1581618455.9,286046998.2,N
1581618475.7,286046998.3,N
1581618495.6,286046998.2,N
1581618515.4,286047001.0,N
1581618535.3,286046998.9,N
1581618555.1,286046999.6,N
1581618556.0,286046999.6,N
1581618575.8,286046997.4,N
1581618595.7,286046999.5,N
1581618615.5,286046998.4,N
1581618635.3,286046998.8,N
1581618655.2,286046997.4,N
1581618675.0,286046995.0,Y
1581618675.9,286046995.0,P
1581618695.8,286046996.5,N
1581618715.6,286046998.3,N
1581618735.4,286046999.1,N
1581618755.3,286046997.0,N
1581618775.1,286046996.5,N
1581618795.9,286046999.3,N
1581618815.7,286047000.0,N
1581618835.5,286046998.5,N
1581618855.4,286046998.7,N
1581618875.2,286046999.5,N
1581618895.0,286046999.5,N
1581618895.9,286046999.5,N
1581618915.8,286046996.8,N
1581618935.6,286046996.9,N
1581618955.5,286046997.1,N
1581618975.3,286046999.1,N
1581618995.1,286046997.4,N
1581619015.9,286046997.3,N
1581619035.7,286046997.7,N
1581619055.5,286046995.4,Y
1581619075.4,286046999.6,P
1581619095.2,286046996.8,P
1581619115.1,286046999.1,N
1581619116.0,286046999.1,N
1581619135.8,286046998.3,N
1581619155.6,286046998.4,N
1581619175.5,286047000.4,N
1581619195.3,286047000.4,N
1581619215.2,286047002.7,N
1581619235.9,286047000.1,N
1581619255.7,286047000.1,N
1581619275.6,286047000.9,N
1581619295.4,286047000.5,N
1581619315.2,286047000.0,N
1581619335.1,286047001.0,N
1581619336.0,286047001.0,N
1581619355.8,286047000.2,N
1581619375.7,286047001.3,N
1581619395.5,286047001.8,N
1581619415.3,286047001.5,N
1581619435.2,286047002.0,N
1581619455.0,286047000.4,N
1581619455.9,286047000.4,N
1581619475.8,286046998.4,N
1581619495.6,286046999.2,N
1581619515.4,286046996.6,N
1581619535.3,286046999.6,N
1581619555.1,286046997.5,N
1581619575.9,286046997.0,N
1581619595.7,286046996.8,N
1581619615.5,286046998.9,N
1581619635.4,286046998.5,N
1581619655.2,286046998.9,N
1581619675.0,286046999.4,N
1581619675.9,286046999.4,N
1581619695.8,286046999.1,N
1581619715.6,286046999.1,N
1581619735.5,286046999.4,N
1581619755.3,286046996.9,N
1581619775.1,286046999.5,N
1581619795.9,286046999.3,N
1581619815.7,286046997.5,N
1581619835.5,286046997.4,N
1581619855.4,286046997.0,N
1581619875.2,286046997.2,N
1581619895.1,286046997.7,N
1581619896.0,286046997.7,N
1581619915.8,286046997.4,N
1581619935.6,286046997.9,N
1581619955.5,286046997.9,N
1581619975.3,286046998.0,N
1581619995.2,286046994.9,Y
1581620015.9,286046998.4,P
1581620035.7,286046998.7,P
1581620055.6,286046999.1,P
1581620075.4,286046996.9,Y
1581620095.3,286046998.2,P
1581620115.1,286046998.5,P
1581620116.0,286046998.5,P
1581620135.8,286046998.2,Y
1581620155.7,286047002.2,P
1581620175.5,286047001.9,N
1581620195.3,286047002.0,N
1581620215.2,286047001.6,N
1581620235.0,286047000.1,N
1581620235.9,286047000.1,N
1581620255.8,286046999.9,N
1581620275.6,286047001.2,N
1581620295.4,286046998.2,N
1581620315.3,286046998.2,N
1581620335.1,286046999.9,N
1581620355.9,286047002.7,N
1581620375.7,286047001.4,N
1581620395.5,286047004.3,N
